Location: Binningen
(47.7924°N, 8.7261°E)
Time: 02:39:54
(UTC+00:00)

COSMOS 2487 - Pass Details

Date: 17 May 2021
Orbit: 432 x 433 km, 74.7° (Epoch: 14 June)

Event Time Altitude Azimuth Distance (km) Brightness Sun altitude
Rises 23:00:58 0° 338° (NNW) 2,419 7.4 -22.5°
Reaches altitude 10° 23:03:03 10° 337° (NNW) 1,546 6.1 -22.5°
Enters shadow 23:05:47 55° 331° (NNW) 529 2.9 -22.6°
